Wind_Speed
24 22 19 17 15 14 12 11 11 10 8 7 6 6 5 4 4 3 3 3 4 4 4 4 3 3 2 2 2 2 2 3 4 4 5 6 7 8 10 11 12 13 14
26 24 21 19 17 15 14 13 12 11 9 8 7 6 6 5 5 4 4 4 4 4 4 3 3 3 3 2 1 1 2 2 3 3 4 5 7 8 9 11 12 13 14
27 25 23 21 19 17 16 14 13 12 11 9 8 8 7 7 6 5 5 4 4 4 4 4 4 3 3 2 1 1 1 1 2 3 4 5 7 8 9 11 12 13 14
29 26 24 22 20 19 17 16 14 13 12 11 9 9 8 8 7 6 6 5 5 5 5 4 4 4 3 3 2 2 2 2 2 3 4 5 7 8 9 10 12 13 14
30 28 26 24 22 20 19 17 16 14 13 12 11 10 9 8 8 7 6 6 6 6 6 5 4 4 4 4 3 3 3 3 3 4 5 6 7 8 10 11 12 14 15
32 29 27 25 23 21 20 19 17 15 14 13 12 11 10 9 9 8 7 7 7 7 6 6 5 5 5 5 4 4 4 4 4 5 6 7 8 9 10 12 13 14 16
33 31 29 27 25 23 21 20 19 17 15 14 13 13 12 11 10 9 9 8 8 8 7 7 6 6 6 6 6 5 5 5 6 6 7 8 9 10 11 12 14 15 16
35 33 31 29 26 25 23 21 20 18 17 16 14 14 13 12 12 11 10 9 9 9 8 8 7 7 7 7 7 7 7 7 7 8 8 9 10 11 12 14 15 16 17
36 34 32 30 27 26 24 23 21 20 18 17 16 15 14 13 13 12 11 11 10 10 9 9 8 8 8 8 8 8 8 8 9 9 10 10 11 12 14 15 16 17 18
38 36 34 31 29 27 25 24 23 21 20 18 17 16 15 15 14 13 13 12 12 11 11 10 10 10 9 10 10 10 10 10 10 11 11 12 13 14 15 16 17 18 20
39 37 35 32 30 28 26 25 23 22 21 19 18 17 16 16 15 15 14 14 13 13 12 12 12 11 11 11 11 11 12 12 12 12 13 14 14 15 16 17 19 20 21
40 38 36 34 31 29 27 26 24 23 22 21 20 19 18 17 16 16 16 15 15 14 14 14 13 13 13 13 13 13 14 14 14 14 15 15 16 17 18 19 20 21 22
41 39 38 36 33 30 28 26 25 24 23 21 21 20 19 18 18 17 17 17 16 16 16 16 15 15 15 15 15 15 15 16 16 16 16 17 18 19 20 21 22 23 24
42 40 39 37 34 31 29 27 26 25 24 23 22 21 20 20 19 18 18 18 18 18 18 18 17 17 17 17 17 17 17 18 18 18 19 19 20 21 22 23 24 25 26
43 42 40 37 34 32 30 28 27 26 25 24 23 22 22 21 21 20 20 20 20 20 19 19 19 19 19 19 19 19 20 20 20 21 21 22 22 23 24 25 26 27 28
45 42 41 38 36 34 31 30 28 28 27 25 24 24 23 23 22 22 21 21 21 21 21 21 21 21 21 21 22 22 22 23 23 23 23 24 25 25 26 27 29 29 30
45 43 42 41 39 36 34 32 30 29 28 27 26 25 24 24 24 23 23 23 22 23 23 23 23 23 23 24 24 24 25 25 25 25 26 26 27 28 28 29 30 31 32
45 44 42 41 41 39 37 35 33 31 30 29 28 27 26 25 25 25 24 24 24 24 24 25 25 25 25 26 26 27 27 27 28 28 28 29 29 30 31 31 32 33 34
46 45 42 43 43 41 40 38 35 34 33 31 30 29 28 28 27 27 26 26 26 26 27 27 27 27 28 28 29 29 29 29 30 30 31 31 32 32 33 33 34 34 35
47 46 44 42 44 43 42 40 39 37 35 34 33 32 30 29 29 29 28 28 28 28 29 29 29 30 30 31 31 31 31 32 33 33 33 34 34 35 35 35 36 36 37
49 48 48 45 44 43 42 41 40 38 37 36 36 34 33 32 31 31 30 30 30 30 30 31 31 32 33 33 33 33 33 34 34 35 35 35 36 36 36 37 37 37 38
50 49 48 49 46 44 43 42 41 40 39 39 38 37 36 35 34 33 32 32 32 32 33 33 34 34 34 35 35 35 34 34 35 35 36 37 37 38 38 38 39 40 40
51 51 50 49 47 44 44 45 44 42 41 40 40 38 38 37 35 35 35 35 35 34 35 36 36 36 36 37 37 36 36 35 34 35 36 37 39 39 40 40 41 42 42
49 50 50 49 49 46 45 46 45 44 42 41 41 40 41 40 39 37 37 37 36 36 36 37 38 38 37 37 37 38 38 37 38 37 38 39 40 41 42 42 43 43 43
50 50 49 49 48 48 48 47 45 45 44 43 42 41 41 40 40 40 40 39 38 38 37 38 38 38 39 39 39 39 39 40 41 41 40 40 40 41 42 44 44 43 43
52 51 49 49 49 48 48 46 45 46 45 45 44 44 44 43 42 42 40 39 39 38 38 38 39 40 40 41 41 41 42 42 43 43 42 41 41 43 44 44 44 44 44
Wind_Direction
221 221 220 220 220 220 220 219 216 213 210 210 213 216 222 229 236 245 260 293 309 316 322 329 331 334 340 353 15 39 52 51 44 37 33 30 26 22 18 16 13 11 9
220 220 219 219 220 220 221 221 219 217 214 214 217 220 226 230 235 244 257 280 296 302 307 315 318 320 324 332 351 19 36 39 29 24 22 19 15 12 11 9 8 7 6
221 221 220 219 220 220 221 222 221 219 218 218 221 224 229 232 236 245 257 274 286 292 298 305 309 310 312 312 312 327 347 359 4 6 5 3 3 3 3 3 3 3 2
220 220 220 221 221 221 221 223 222 221 221 221 222 225 228 232 235 243 255 267 278 284 291 296 298 299 300 295 287 285 295 312 329 338 344 347 351 354 356 357 357 357 357
218 219 219 220 221 221 222 223 223 222 223 223 224 226 228 230 234 243 251 262 271 277 282 284 287 290 288 284 280 279 284 292 307 319 326 332 339 345 347 349 350 352 352
217 218 218 219 221 221 222 222 223 223 224 224 225 227 228 230 236 244 249 259 267 272 275 277 281 284 282 277 275 277 280 285 296 307 315 322 329 335 338 341 344 346 347
215 216 217 218 220 222 222 222 223 223 224 225 226 228 230 232 237 242 247 256 264 267 270 273 275 277 275 272 271 272 277 282 290 299 308 315 322 327 332 335 339 341 342
214 215 216 218 220 221 222 223 224 224 224 226 228 230 233 235 238 241 247 254 261 265 268 269 270 273 274 272 270 272 276 282 288 295 303 309 315 321 326 330 333 335 337
214 214 215 216 219 221 223 224 225 225 225 227 230 233 234 236 239 242 246 252 258 262 266 266 267 270 272 272 272 274 277 282 287 293 300 306 311 316 321 325 328 331 333
213 214 214 216 219 220 222 223 225 225 227 229 231 234 235 237 240 244 247 251 256 260 264 266 266 267 270 272 273 275 278 282 287 292 297 303 308 313 317 321 324 326 329
214 214 214 217 218 219 221 224 225 226 228 230 232 235 237 239 241 245 248 251 256 259 262 265 266 268 270 272 274 277 280 283 286 290 296 300 305 309 313 317 320 323 325
214 214 215 218 218 219 221 224 225 226 228 231 233 235 237 239 242 245 248 252 256 258 261 264 265 268 270 272 275 278 281 283 286 290 294 298 302 306 310 314 317 319 321
212 213 215 217 218 219 222 224 225 226 229 231 233 236 237 239 242 246 249 252 256 259 261 263 264 267 270 272 275 277 281 284 287 290 293 297 300 304 308 311 314 316 318
212 213 214 215 217 219 221 223 225 227 230 231 233 236 238 241 243 247 250 252 255 258 260 262 264 266 268 271 275 277 280 284 287 290 293 296 299 303 306 309 311 313 314
213 212 212 214 215 218 220 223 226 229 231 233 235 237 240 242 245 248 251 254 256 258 260 262 264 267 269 272 276 278 281 283 286 289 292 295 299 302 304 307 308 310 312
216 215 216 215 215 217 219 223 226 230 232 234 236 238 241 244 246 249 251 254 256 258 261 263 265 268 270 273 276 278 281 283 286 288 291 294 297 299 302 304 306 307 309
216 217 218 217 217 219 220 223 226 229 232 233 236 238 241 243 245 248 252 254 257 260 262 264 267 269 271 274 276 278 281 283 286 288 290 293 295 297 300 302 304 305 307
216 217 218 218 218 219 221 223 226 229 231 233 235 238 241 243 246 249 252 255 258 260 263 265 267 270 272 275 277 280 282 284 286 287 289 292 294 295 298 300 302 304 306
219 219 220 220 220 221 222 224 226 229 232 234 236 239 242 244 247 250 253 256 259 261 264 266 268 270 273 275 278 280 283 284 285 287 289 290 292 294 296 298 300 302 303
221 221 220 222 221 222 223 225 228 230 233 236 238 240 243 245 248 251 254 257 259 261 264 266 268 271 273 276 278 280 282 284 284 286 287 289 290 292 294 296 299 300 302
223 223 223 221 224 225 226 226 229 233 235 238 239 240 242 244 248 251 254 257 259 261 264 267 270 273 275 277 278 280 282 283 285 286 287 288 290 292 294 295 297 298 300
224 226 226 226 227 230 230 230 231 234 237 238 239 241 243 246 248 250 254 257 260 263 265 268 270 272 275 277 278 279 281 283 285 287 287 288 290 291 292 294 296 297 299
226 226 227 229 229 230 232 233 234 236 238 240 241 243 245 246 248 252 255 258 262 264 266 268 270 272 275 276 278 279 281 282 284 286 288 289 290 290 292 293 294 296 297
228 230 230 231 232 233 234 235 237 238 240 242 243 245 247 248 249 252 256 259 262 264 267 269 270 272 274 276 279 280 280 282 284 285 287 289 289 290 291 292 294 294 295
231 232 232 233 234 234 236 237 239 239 241 243 244 245 247 248 251 254 258 260 261 263 266 268 271 274 275 276 278 280 281 283 285 286 287 288 288 290 291 292 293 294 294
232 233 236 237 237 237 238 238 240 242 244 245 246 247 248 251 254 257 258 259 261 265 267 269 273 275 276 277 279 280 281 283 285 287 288 289 289 290 292 293 293 293 294
Height
5864 5866 5869 5871 5873 5874 5876 5877 5879 5880 5881 5882 5883 5884 5884 5885 5886 5887 5887 5888 5888 5888 5888 5888 5888 5888 5888 5888 5888 5888 5887 5887 5887 5887 5887 5886 5885 5884 5883 5882 5881 5880 5878
5860 5863 5866 5868 5870 5872 5874 5876 5877 5878 5879 5880 5881 5882 5883 5884 5885 5886 5887 5887 5887 5887 5887 5887 5888 5888 5888 5888 5888 5887 5887 5887 5887 5887 5886 5886 5885 5884 5883 5882 5881 5879 5878
5858 5861 5863 5866 5868 5870 5872 5874 5875 5876 5878 5879 5880 5881 5882 5883 5884 5885 5886 5886 5886 5887 5887 5887 5887 5887 5887 5887 5887 5887 5887 5887 5887 5887 5886 5886 5885 5884 5883 5882 5881 5879 5878
5854 5857 5860 5863 5865 5867 5870 5871 5873 5875 5876 5877 5878 5880 5881 5882 5883 5884 5885 5885 5886 5886 5886 5886 5887 5887 5887 5887 5887 5887 5887 5887 5887 5886 5886 5885 5885 5884 5883 5881 5880 5879 5877
5850 5853 5857 5860 5862 5865 5867 5869 5871 5872 5874 5875 5877 5878 5879 5881 5882 5883 5883 5884 5885 5885 5885 5885 5886 5886 5886 5886 5886 5886 5886 5886 5886 5886 5885 5885 5884 5883 5882 5881 5879 5878 5876
5845 5849 5853 5856 5859 5862 5864 5866 5868 5870 5872 5873 5875 5876 5878 5879 5880 5881 5882 5883 5883 5884 5884 5885 5885 5885 5885 5885 5885 5885 5885 5885 5885 5885 5884 5884 5883 5882 5881 5880 5878 5877 5875
5840 5845 5849 5853 5856 5859 5861 5864 5866 5868 5870 5871 5873 5874 5876 5877 5878 5880 5881 5881 5882 5882 5883 5883 5884 5884 5884 5884 5884 5884 5884 5884 5884 5884 5883 5883 5882 5881 5880 5878 5877 5875 5874
5836 5840 5845 5849 5852 5855 5858 5861 5863 5865 5867 5869 5871 5872 5874 5875 5876 5878 5879 5880 5880 5881 5881 5882 5882 5883 5883 5883 5883 5883 5883 5883 5883 5882 5882 5881 5880 5879 5878 5877 5875 5874 5872
5830 5835 5840 5844 5848 5851 5855 5857 5860 5862 5864 5866 5868 5870 5871 5873 5874 5876 5877 5878 5879 5879 5880 5880 5881 5881 5881 5881 5882 5882 5882 5882 5881 5881 5880 5880 5879 5878 5876 5875 5873 5872 5870
5825 5831 5835 5840 5844 5847 5851 5854 5856 5859 5861 5863 5865 5867 5869 5870 5872 5873 5875 5876 5876 5877 5878 5878 5879 5879 5879 5880 5880 5880 5880 5880 5879 5879 5878 5877 5877 5875 5874 5873 5871 5869 5867
5820 5825 5831 5835 5839 5843 5847 5850 5853 5855 5858 5860 5862 5864 5866 5867 5869 5871 5872 5873 5874 5875 5876 5876 5877 5877 5877 5878 5878 5878 5878 5878 5877 5877 5876 5875 5874 5873 5872 5870 5869 5867 5865
5815 5821 5826 5830 5835 5839 5842 5846 5849 5852 5854 5857 5859 5861 5863 5864 5866 5868 5869 5870 5871 5872 5873 5874 5874 5875 5875 5875 5875 5875 5875 5875 5875 5874 5873 5872 5871 5870 5869 5867 5866 5864 5862
5809 5815 5820 5825 5830 5834 5838 5842 5845 5848 5850 5853 5855 5857 5859 5861 5863 5864 5866 5867 5868 5869 5870 5871 5871 5872 5872 5872 5872 5872 5872 5872 5872 5871 5870 5869 5868 5867 5865 5864 5862 5860 5858
5802 5808 5814 5819 5824 5829 5833 5837 5840 5843 5846 5849 5851 5853 5855 5857 5859 5861 5862 5864 5865 5866 5867 5867 5868 5868 5869 5869 5869 5869 5869 5869 5868 5868 5867 5866 5865 5863 5862 5860 5858 5856 5854
5796 5803 5808 5814 5819 5824 5828 5832 5835 5839 5842 5844 5847 5849 5851 5853 5855 5857 5858 5860 5861 5862 5863 5863 5864 5865 5865 5865 5865 5865 5865 5865 5864 5864 5863 5862 5860 5859 5858 5856 5854 5852 5850
5790 5797 5803 5808 5813 5818 5822 5826 5830 5834 5837 5840 5842 5845 5847 5849 5851 5853 5854 5855 5857 5858 5858 5859 5860 5860 5861 5861 5861 5861 5861 5860 5860 5859 5858 5857 5856 5854 5853 5851 5849 5847 5844
5785 5791 5797 5802 5806 5811 5816 5820 5824 5828 5831 5834 5837 5840 5842 5844 5846 5848 5849 5851 5852 5853 5854 5855 5855 5856 5856 5856 5856 5856 5856 5856 5855 5854 5853 5852 5851 5849 5848 5846 5844 5841 5839
5777 5784 5789 5795 5800 5805 5809 5814 5818 5822 5826 5829 5831 5834 5837 5839 5841 5843 5844 5846 5847 5848 5849 5850 5850 5851 5851 5851 5851 5851 5851 5850 5850 5849 5848 5847 5845 5844 5842 5840 5838 5835 5833
5770 5777 5782 5788 5794 5798 5803 5807 5811 5815 5819 5823 5826 5829 5831 5833 5835 5837 5839 5840 5841 5842 5843 5844 5845 5845 5845 5845 5845 5845 5845 5844 5844 5843 5842 5840 5839 5837 5836 5834 5832 5829 5827
5764 5770 5775 5781 5787 5791 5796 5800 5804 5809 5813 5816 5819 5822 5825 5827 5829 5831 5832 5834 5835 5836 5837 5838 5838 5839 5839 5839 5839 5839 5839 5838 5837 5836 5835 5834 5832 5831 5829 5827 5825 5822 5820
5756 5763 5769 5774 5779 5784 5789 5793 5798 5802 5806 5810 5812 5815 5818 5820 5822 5824 5826 5827 5828 5829 5830 5831 5831 5832 5832 5832 5833 5832 5832 5831 5830 5829 5828 5826 5825 5823 5821 5819 5817 5815 5813
5748 5755 5761 5767 5772 5777 5782 5787 5791 5795 5798 5802 5805 5807 5810 5813 5815 5817 5819 5820 5821 5822 5823 5824 5824 5825 5825 5825 5825 5825 5825 5825 5823 5821 5820 5818 5817 5815 5813 5811 5809 5807 5805
5742 5748 5754 5759 5764 5769 5774 5778 5782 5786 5790 5793 5797 5801 5803 5805 5807 5809 5811 5813 5814 5815 5816 5816 5817 5817 5817 5817 5817 5817 5816 5816 5815 5814 5812 5811 5809 5807 5805 5803 5801 5798 5796
5735 5741 5746 5750 5756 5761 5765 5770 5774 5778 5783 5787 5790 5792 5795 5797 5799 5801 5803 5804 5806 5807 5808 5808 5808 5809 5809 5809 5808 5808 5808 5807 5807 5807 5805 5803 5801 5799 5797 5795 5792 5789 5787
5726 5732 5737 5743 5748 5753 5757 5762 5766 5770 5774 5777 5780 5783 5786 5788 5790 5792 5794 5796 5797 5798 5799 5799 5800 5800 5800 5800 5800 5799 5798 5798 5797 5797 5797 5795 5792 5790 5788 5785 5783 5780 5777
5718 5724 5729 5735 5740 5744 5749 5753 5756 5761 5765 5768 5771 5774 5776 5779 5781 5783 5784 5786 5787 5788 5789 5790 5790 5791 5791 5791 5790 5790 5789 5788 5787 5786 5786 5785 5783 5781 5778 5776 5773 5770 5768